Hourly Data Report for July 05, 2021

KITCHENER/WATERLOO
ONTARIO
Current Station Operator: NAVCAN

43°27'39.000" N
80°22'43.000" W
321.60 m
6144239
71368
YKF

Download Data

Hourly Data (July 2021)
Hourly Data Report for July 5, 2021
TIME
LST
Temp Definition
°C
Dew Point Definition
°C
Rel Hum Definition
%
Precip. Amount Definition
mm

Wind Dir Definition
10's deg

Wind Spd Definition
km/h
Visibility Definition
km
Stn Press Definition
kPa
Hmdx Definition


Wind Chill Definition


Weather Definition


00:00 15.7 13.9 89 0.0 10 5 16.1 97.71     LegendNANA
01:00 15.1 14.0 93 0.0   0 16.1 97.70     LegendNANA
02:00 15.5 13.9 90 0.0 7 5 16.1 97.67     LegendNANA
03:00 14.3 13.7 96 0.0 7 5 16.1 97.65     LegendNANA
04:00 15.5 14.9 96 0.0   0 16.1 97.65     LegendNANA
05:00 15.5 14.9 96 0.0 11 4 16.1 97.64     LegendNANA
06:00 16.8 15.8 94 0.0 11 4 16.1 97.64     LegendNANA
07:00 19.8 16.1 79 0.0 18 9 16.1 97.64     LegendNANA
08:00 22.0 17.1 73 0.0 19 13 16.1 97.63 27   LegendNANA
09:00 24.5 18.8 70 0.0 21 11 16.1 97.63 31   LegendNANA
10:00 26.6 20.0 67 0.0 22 18 16.1 97.64 34   LegendNANA
11:00 27.0 20.2 66 0.0 23 15 16.1 97.61 35   LegendNANA
12:00 28.6 21.8 66 0.0 22 15 16.1 97.57 38   LegendNANA
13:00 29.1 20.7 60 0.0 23 15 16.1 97.52 37   LegendNANA
14:00 30.0 20.0 54 0.0 23 24 16.1 97.51 38   LegendNANA
15:00 30.7 19.7 51 0.0 24 28 16.1 97.46 38   LegendNANA
16:00 29.9 20.7 57 0.0 23 26 16.1 97.42 38   LegendNANA
17:00 29.3 22.0 64 0.0 23 24 16.1 97.41 39   LegendNANA
18:00 28.5 21.1 64 0.0 22 18 16.1 97.43 37   LegendNANA
19:00 27.7 22.1 71 0.0 21 21 16.1 97.42 37   LegendNANA
20:00 26.8 21.9 74 0.0 20 18 16.1 97.43 36   LegendNANA
21:00 25.6 21.8 79 0.0 20 15 16.1 97.49 35   LegendNANA
22:00 23.8 21.0 84 2.5 24 22 6.4 97.52 32   Thunderstorms,Moderate Rain
23:00 23.6 21.7 89 0.2 24 11 16.1 97.50 33   LegendNANA

Notes on Data Quality.

Legend

  • E = Estimated
  • M = Missing
  • NA = Not Available*
  • [empty] = Indicates an unobserved value
Date modified: